Wetbulb
52.89 52.09 51.21 49.80 49.24 49.33 49.51 49.86 50.14 50.96 52.11 52.41 53.02 53.55 53.63 53.45 53.39 55.35 61.45 63.71 61.24 58.84 59.02 60.36 60.39 58.74 59.76 59.22 56.67 58.27 56.47 57.47 56.31 52.10 51.30 52.29 50.86 52.26 48.07 50.79 50.24 48.08 47.65 47.19 47.89 45.19 42.48 55.68 53.47 47.89 53.05 54.76 53.64 53.19
52.50 51.91 50.75 49.37 48.59 48.82 49.24 49.55 49.80 50.69 51.79 52.21 52.66 53.45 53.43 53.51 53.27 53.40 60.04 63.36 64.31 60.56 58.57 61.16 60.86 61.34 60.14 59.81 59.34 60.52 57.52 57.08 57.33 54.54 55.14 54.02 52.01 53.52 50.80 47.47 54.54 47.39 50.50 48.90 49.11 49.92 56.33 56.53 55.59 56.86 56.51 54.30 53.72 53.21
52.91 51.85 50.48 49.24 48.15 48.57 49.02 49.48 49.53 50.68 51.68 51.91 52.52 53.12 53.45 53.43 53.26 53.47 60.74 62.32 63.21 58.67 59.04 59.25 57.08 60.54 62.41 61.58 62.84 57.83 59.46 60.49 59.83 61.07 57.44 55.48 52.02 55.08 49.69 49.53 51.86 53.78 54.33 52.38 52.26 52.89 54.08 55.58 56.22 56.28 56.19 54.49 54.26 53.22
52.36 51.44 50.27 48.88 47.65 48.31 48.96 49.21 49.43 51.03 51.50 51.93 52.44 53.23 53.33 53.31 53.04 53.39 60.15 61.37 62.44 59.79 55.25 55.32 61.57 58.64 61.46 61.78 60.63 62.06 61.58 62.82 62.44 59.86 56.52 54.52 51.91 58.12 52.90 53.39 52.21 53.64 55.57 53.44 50.17 53.02 55.13 55.46 55.78 55.48 54.83 54.60 52.79 52.41
51.79 50.91 50.20 48.75 47.17 48.07 48.98 48.93 49.77 50.92 51.49 52.02 52.66 53.23 53.35 53.27 52.85 57.04 61.12 60.95 61.57 58.96 54.76 54.56 59.16 59.52 60.07 60.07 58.99 61.14 61.51 61.75 58.12 56.86 55.98 53.74 57.04 56.74 55.47 54.46 51.91 55.56 54.40 51.61 48.86 54.92 54.06 54.52 55.96 55.57 54.29 53.16 52.11 51.41
51.20 50.57 49.80 48.37 46.85 48.29 48.83 49.23 50.65 50.92 51.57 51.96 52.49 52.62 53.08 52.86 52.81 61.01 57.85 60.49 59.82 62.23 58.02 52.50 57.62 56.54 58.00 58.12 58.06 58.77 60.71 59.32 58.29 57.55 56.60 56.70 57.27 57.04 51.76 50.67 54.72 56.73 58.60 59.35 55.02 57.54 56.69 56.07 55.88 55.81 54.26 53.08 52.04 51.86
50.78 50.08 49.34 47.74 47.12 48.34 48.80 50.24 50.68 51.01 51.43 51.74 51.85 52.12 52.56 52.25 57.60 55.83 54.03 55.74 53.71 61.64 57.84 52.94 53.27 56.80 58.79 58.67 58.93 57.77 59.56 58.93 57.33 58.25 56.51 56.37 56.32 56.62 53.49 49.37 55.16 56.83 58.02 57.97 58.35 58.12 55.15 55.62 55.20 55.58 54.76 53.25 52.43 52.64
50.21 49.56 48.89 47.65 47.36 48.55 49.41 50.09 50.61 50.95 51.09 51.18 51.51 52.08 52.44 52.46 52.10 56.61 58.60 55.06 55.23 60.11 57.73 54.26 51.77 54.62 59.10 56.88 54.02 59.48 56.07 56.20 56.15 55.61 56.90 54.68 56.24 56.03 48.76 52.80 55.76 56.81 58.22 57.60 57.86 58.23 56.74 57.46 56.25 55.62 55.38 53.41 51.96 51.62
49.50 48.83 48.34 46.87 47.70 48.81 49.29 49.88 50.39 50.71 51.04 51.00 51.47 51.70 57.83 56.99 56.19 56.84 54.42 53.73 61.73 59.06 53.93 55.15 52.81 49.50 57.97 55.74 57.77 56.75 58.21 52.09 57.27 54.20 53.70 55.25 52.91 47.65 50.50 53.03 54.54 55.42 55.50 56.94 58.76 59.16 57.05 55.60 55.64 55.25 54.60 53.10 52.22 52.07
48.86 48.33 47.57 46.74 47.95 49.11 49.49 49.76 50.33 50.85 51.29 51.40 55.07 56.02 52.75 56.06 52.55 56.41 58.34 56.02 55.25 57.24 57.58 53.49 56.57 50.92 55.52 56.85 54.54 56.05 56.54 54.05 50.88 52.97 56.83 52.54 48.40 53.81 54.55 55.25 55.77 56.13 56.02 56.61 55.50 56.17 56.25 55.50 55.71 55.60 55.08 54.29 53.58 53.25
48.44 48.11 47.01 46.72 48.53 49.26 49.53 49.95 50.29 50.98 52.04 57.16 55.66 53.70 57.77 53.73 58.19 56.05 51.96 51.44 53.10 50.31 54.21 54.42 54.43 53.13 56.73 53.00 53.04 55.07 53.17 54.36 49.07 51.38 52.44 48.78 45.94 51.60 54.81 55.08 56.14 56.83 56.96 56.73 56.67 57.05 57.89 57.73 57.13 56.14 55.94 54.90 54.08 53.85
48.13 47.59 46.75 47.30 48.44 49.12 49.76 50.00 50.09 57.32 56.62 53.40 54.48 56.42 58.46 55.77 53.19 48.23 49.62 50.93 50.77 48.78 53.30 52.77 52.31 54.32 55.95 56.86 54.09 54.77 51.58 52.35 46.53 55.43 50.70 44.34 48.38 53.68 54.35 54.53 55.28 56.37 56.42 56.28 56.89 56.14 56.50 57.10 58.28 57.86 56.32 55.14 54.91 55.02
47.57 47.40 46.55 47.73 48.49 49.04 49.53 49.93 50.43 51.33 51.21 59.04 55.17 51.39 51.31 51.37 43.80 44.50 43.21 47.94 48.87 53.95 53.75 54.22 52.43 53.62 55.33 56.06 54.05 52.12 46.90 49.61 54.92 49.45 45.58 46.77 51.08 53.77 54.62 55.25 55.25 56.25 56.31 56.45 56.31 57.08 57.23 57.13 58.21 58.35 56.76 55.94 55.08 54.27
46.98 47.01 47.70 48.19 48.32 49.12 49.51 49.92 50.53 52.92 56.28 52.94 49.08 38.40 48.96 46.77 49.34 50.15 49.80 50.21 53.08 55.02 53.91 53.50 54.15 51.83 53.71 52.02 51.64 46.42 50.43 50.61 46.55 44.11 42.63 48.99 52.52 53.60 54.97 55.08 54.59 54.52 55.62 55.99 55.85 56.08 56.19 56.90 57.26 57.54 57.43 55.79 54.08 53.78
46.58 47.08 46.97 48.74 48.38 49.04 49.41 49.84 50.51 57.95 55.62 50.27 50.93 42.78 47.85 51.42 51.55 52.03 53.20 52.22 53.85 55.95 53.60 53.47 53.23 52.57 51.34 48.98 51.47 49.02 45.68 43.52 46.15 43.31 48.64 50.64 53.82 54.04 53.99 54.02 54.12 54.16 54.60 55.10 54.40 54.45 54.65 55.38 55.52 55.09 57.00 54.51 55.00 54.80
47.14 46.58 49.77 47.93 48.25 48.58 49.04 53.57 58.00 58.27 55.18 52.54 51.86 49.55 51.30 50.09 50.11 51.73 52.15 51.25 53.65 54.03 55.32 53.99 49.91 47.51 47.19 47.89 45.66 44.66 43.46 43.46 46.98 47.76 50.57 52.86 53.75 54.11 53.93 54.68 54.44 54.64 54.43 53.56 53.98 55.32 55.69 54.59 55.00 55.06 55.75 54.12 53.30 53.05
45.00 51.75 45.90 47.36 47.86 48.72 49.62 55.40 56.18 49.68 50.94 48.97 51.16 54.62 53.05 52.08 50.60 50.84 51.50 51.36 54.29 52.23 49.74 50.73 44.15 44.79 48.99 45.96 44.90 49.12 46.10 49.54 51.38 52.85 53.23 54.17 54.14 53.84 53.88 53.52 54.26 54.07 53.78 54.03 54.83 54.56 55.37 55.27 55.05 53.16 52.01 51.69 52.04 52.60
51.57 50.05 47.42 47.54 50.56 53.80 56.31 54.28 51.61 49.75 46.14 52.47 50.12 51.52 52.61 53.21 51.85 51.82 52.32 52.68 52.08 50.81 50.34 48.36 49.88 45.36 44.99 41.83 45.82 48.21 51.25 51.96 53.35 52.67 53.20 54.13 54.80 54.19 53.43 52.83 53.53 53.37 53.70 52.66 53.73 54.35 55.64 55.14 54.19 52.41 51.30 52.11 52.74 53.04
49.51 50.17 46.93 47.63 50.88 53.19 50.33 49.96 51.71 45.68 48.24 51.08 52.07 54.35 53.38 52.21 53.08 54.12 53.82 53.05 53.50 53.47 50.92 50.23 45.11 45.89 47.58 49.53 48.53 50.76 53.03 52.77 50.87 52.40 52.48 53.74 53.76 53.13 53.53 52.86 53.52 53.45 53.43 53.90 53.89 52.96 51.40 53.40 54.55 54.43 54.35 53.81 52.57 53.55
46.57 46.76 47.30 47.82 49.68 51.75 45.57 48.23 52.97 48.73 47.52 49.26 51.94 51.50 52.76 51.85 52.88 54.00 53.55 53.14 51.30 50.78 48.26 46.10 46.77 49.55 49.41 50.66 53.24 52.63 52.75 54.09 52.24 50.69 50.44 52.10 52.79 53.12 53.21 52.55 52.50 53.56 53.22 53.25 53.05 47.88 50.56 51.15 51.93 52.19 53.36 53.70 53.09 51.34
45.38 49.99 48.57 51.81 53.94 51.80 49.99 49.15 48.22 49.57 49.59 49.92 51.89 51.97 51.19 52.69 52.00 51.58 50.70 52.07 49.42 49.51 48.09 50.93 51.69 51.86 53.42 53.28 53.83 53.72 54.32 52.69 51.42 51.10 50.70 50.12 52.14 52.73 52.23 52.88 53.19 52.45 51.53 51.69 51.40 51.67 49.95 49.52 51.35 52.36 51.15 51.67 54.20 53.69
51.25 47.56 53.14 53.19 49.87 48.81 49.55 51.84 50.31 51.09 50.27 49.98 49.36 50.83 49.79 48.96 49.74 50.46 51.20 49.03 49.79 51.24 51.54 51.86 52.87 53.23 51.87 51.88 54.06 54.27 53.76 53.60 53.85 52.22 45.48 48.82 50.38 50.17 50.53 51.26 50.42 51.11 51.51 51.73 51.62 51.56 52.65 53.49 51.25 51.50 51.08 50.86 50.81 54.42
47.87 50.67 51.39 49.28 44.91 43.56 43.25 52.64 46.59 48.10 44.37 46.11 48.94 46.06 47.75 48.62 50.36 53.16 48.62 50.84 51.20 52.85 53.06 53.99 53.32 54.20 52.62 53.47 53.50 53.73 54.01 53.00 51.85 51.11 51.03 51.00 51.80 51.58 51.53 50.76 51.09 49.71 49.69 51.03 51.82 51.67 51.85 46.69 51.69 52.31 51.57 50.67 51.06 52.06
45.15 48.48 44.43 44.56 45.36 41.13 47.79 44.88 48.78 47.17 47.47 45.69 45.48 42.53 45.24 49.28 51.60 49.02 45.65 49.18 49.77 53.80 52.92 53.10 52.80 51.44 52.22 52.45 51.41 50.33 51.30 52.46 51.74 51.30 52.13 50.73 49.66 50.29 51.00 51.34 51.52 51.33 51.69 51.83 51.41 51.31 51.30 50.94 45.86 52.04 51.12 50.29 50.16 50.01
40.95 40.53 42.69 35.23 45.83 42.24 41.14 41.84 42.10 43.36 40.94 43.09 41.99 43.12 45.77 49.57 46.05 44.83 44.66 47.70 51.61 51.94 52.36 53.09 51.55 51.47 50.10 50.98 50.65 52.02 54.08 52.73 51.03 50.05 50.92 51.67 51.41 50.37 49.94 51.36 51.25 52.27 51.60 50.13 50.58 50.23 50.42 50.72 50.39 49.76 48.75 50.02 49.50 49.39
34.94 41.38 39.19 41.58 42.72 41.57 41.97 39.40 40.63 41.23 42.84 41.48 42.97 47.96 48.60 46.67 40.93 39.88 46.21 49.00 50.69 51.66 52.01 51.66 50.12 49.50 50.16 51.09 50.76 51.57 51.43 52.85 52.82 50.78 50.89 51.05 50.04 49.13 48.12 48.09 47.90 49.18 52.22 51.15 49.36 48.28 48.32 49.50 49.46 49.61 48.69 47.40 40.87 48.00
36.04 39.30 44.68 49.11 47.90 45.98 44.91 46.32 46.00 44.15 41.17 40.51 44.12 43.64 43.56 38.60 39.37 45.15 50.01 52.78 53.33 54.25 54.73 54.51 53.49 52.18 51.42 51.64 52.19 52.28 52.11 52.08 51.96 51.11 51.81 51.72 51.53 51.30 50.14 48.59 49.04 49.74 51.24 51.70 51.32 50.05 47.49 47.35 47.18 47.96 48.46 49.23 49.32 48.82
44.47 44.54 40.60 43.72 44.61 46.84 41.78 42.94 41.97 41.02 42.91 47.47 46.79 40.77 39.99 40.92 43.02 48.51 51.28 55.08 54.35 54.97 54.05 55.05 54.93 53.72 52.75 52.40 52.37 51.75 51.41 51.39 51.43 51.11 51.00 50.70 51.06 50.25 49.91 51.54 51.21 38.97 48.25 50.87 50.51 50.70 49.26 48.58 48.02 47.99 48.26 47.74 48.57 50.57
43.49 47.09 46.22 42.66 43.41 43.98 43.99 43.56 44.38 47.85 50.30 48.93 45.20 44.31 45.35 50.53 51.43 51.21 53.36 54.48 55.23 53.51 51.78 51.36 50.97 52.33 52.47 52.31 52.28 51.41 50.62 49.26 46.13 44.21 43.74 44.09 44.94 45.95 47.45 46.30 46.12 46.23 45.96 46.46 38.55 38.67 44.92 47.04 48.62 48.74 48.68 48.93 48.68 49.26
43.98 48.18 44.05 42.63 41.37 42.06 46.07 49.60 48.39 50.34 52.13 51.96 51.47 50.46 49.61 50.26 53.24 55.67 53.25 52.70 51.84 50.52 50.87 52.03 51.69 50.75 49.58 48.90 48.33 49.14 50.25 49.36 46.98 45.08 41.29 40.33 40.57 42.21 42.29 42.33 42.40 43.45 44.22 44.04 43.67 43.74 38.32 43.23 44.20 48.13 47.09 47.45 46.41 46.21
47.13 47.22 44.00 44.29 42.66 46.34 48.67 51.26 52.64 52.50 51.89 50.40 52.08 49.18 48.53 49.67 51.11 53.22 53.27 53.04 52.55 52.40 51.33 50.14 49.89 50.24 49.14 48.53 47.83 46.71 46.21 48.87 48.06 46.28 44.32 43.15 42.56 42.07 42.83 43.43 43.42 43.42 43.39 42.65 42.12 40.88 40.23 40.74 43.14 43.91 45.51 45.53 46.22 43.76
46.05 43.32 43.66 40.36 44.29 48.81 51.16 49.64 49.45 48.60 48.78 48.02 47.86 49.33 49.02 47.93 46.00 50.58 53.07 52.31 50.68 48.88 43.23 45.69 48.18 48.27 49.63 49.60 49.43 49.00 37.26 47.19 46.13 45.46 44.84 44.79 44.18 43.84 43.50 42.80 41.89 41.73 41.72 41.62 41.22 41.09 40.25 39.62 39.91 40.79 43.08 43.42 44.54 44.95
46.32 46.41 45.89 45.71 45.37 43.74 48.46 47.62 45.88 44.71 46.42 45.62 46.46 47.70 47.42 46.86 44.51 51.14 54.22 53.53 51.10 49.20 48.34 49.09 49.69 49.82 49.30 48.59 48.40 47.69 41.25 46.90 42.88 34.24 35.51 33.97 33.75 36.41 40.42 42.53 42.27 41.22 40.83 40.84 40.73 40.95 39.50 39.53 40.00 39.96 42.18 41.33 41.85 43.52
MSLP
1028.19 1028.41 1028.54 1028.51 1028.42 1028.28 1028.11 1027.85 1027.35 1026.81 1026.31 1025.72 1025.03 1024.42 1023.80 1023.11 1022.36 1021.51 1019.87 1019.58 1018.82 1017.23 1017.88 1017.61 1017.31 1016.97 1016.05 1015.98 1015.21 1016.41 1015.95 1016.03 1014.96 1014.55 1013.80 1013.81 1014.39 1014.88 1017.35 1017.18 1015.73 1016.57 1016.06 1016.00 1016.59 1016.95 1018.63 1019.60 1019.14 1019.97 1020.99 1021.27 1021.78 1022.04
1028.21 1028.46 1028.59 1028.69 1028.68 1028.62 1028.40 1028.03 1027.59 1027.13 1026.64 1026.13 1025.58 1025.05 1024.41 1023.70 1022.70 1022.07 1019.66 1019.22 1019.16 1017.75 1018.76 1018.95 1018.89 1018.81 1018.66 1018.65 1018.19 1017.06 1017.00 1016.93 1016.74 1015.83 1015.12 1015.08 1014.93 1015.02 1016.56 1016.58 1016.72 1017.81 1018.08 1018.07 1018.67 1019.30 1020.18 1020.54 1020.97 1021.51 1021.64 1021.84 1022.29 1022.71
1028.33 1028.60 1028.80 1028.90 1028.84 1028.73 1028.51 1028.17 1027.89 1027.51 1027.02 1026.57 1025.98 1025.48 1024.83 1024.16 1023.34 1023.00 1020.61 1020.19 1018.79 1018.06 1018.23 1018.31 1019.18 1019.42 1019.16 1019.05 1019.13 1018.46 1017.59 1018.50 1018.13 1018.30 1016.50 1016.17 1016.02 1016.24 1016.62 1016.87 1017.41 1018.18 1018.60 1018.46 1019.57 1019.97 1020.42 1020.98 1021.58 1021.93 1022.24 1022.65 1023.09 1023.53
1028.45 1028.76 1028.93 1028.97 1028.95 1028.90 1028.67 1028.35 1028.03 1027.61 1027.11 1026.66 1026.20 1025.70 1025.14 1024.51 1023.85 1023.09 1021.13 1020.87 1019.75 1018.50 1017.73 1019.55 1019.55 1019.63 1019.59 1019.47 1019.32 1019.38 1019.32 1019.23 1019.00 1017.77 1016.60 1016.18 1016.60 1016.86 1016.91 1017.61 1018.37 1019.25 1019.17 1019.53 1020.63 1020.56 1020.28 1021.01 1021.53 1022.19 1022.83 1023.32 1023.63 1024.14
1028.53 1028.81 1028.96 1029.06 1029.11 1029.02 1028.79 1028.54 1028.20 1027.75 1027.26 1026.79 1026.40 1025.92 1025.33 1024.76 1024.41 1023.31 1021.68 1021.58 1021.53 1021.17 1018.44 1019.19 1019.70 1019.96 1019.91 1019.80 1019.52 1019.52 1019.53 1019.26 1017.73 1017.16 1016.83 1017.06 1017.55 1017.89 1017.94 1018.25 1020.09 1020.72 1020.93 1021.06 1021.05 1021.14 1021.13 1021.53 1022.08 1022.63 1023.03 1023.53 1024.04 1024.53
1028.65 1028.93 1029.11 1029.22 1029.21 1029.09 1028.86 1028.58 1028.21 1027.70 1027.38 1026.99 1026.55 1025.96 1025.36 1024.91 1024.46 1022.29 1021.35 1021.76 1022.43 1021.64 1019.77 1018.69 1020.04 1019.96 1019.97 1019.97 1019.74 1019.74 1019.35 1018.92 1018.05 1017.25 1017.51 1018.66 1019.48 1019.31 1018.26 1019.74 1021.79 1022.03 1021.96 1021.98 1021.77 1021.82 1021.90 1022.22 1022.63 1022.93 1023.28 1023.91 1024.50 1024.85
1028.76 1029.02 1029.14 1029.29 1029.28 1029.13 1028.93 1028.63 1028.26 1027.89 1027.50 1027.06 1026.53 1026.00 1025.44 1024.89 1023.42 1023.11 1023.68 1023.98 1023.83 1022.58 1020.04 1018.95 1019.03 1020.02 1019.95 1019.52 1019.44 1019.33 1019.53 1019.06 1018.40 1018.38 1018.42 1018.69 1019.38 1019.85 1020.09 1021.71 1022.61 1022.78 1022.59 1022.34 1022.22 1022.11 1022.25 1022.44 1022.36 1023.18 1023.69 1024.44 1025.09 1025.23
1028.80 1029.08 1029.31 1029.41 1029.40 1029.21 1029.04 1028.72 1028.30 1027.90 1027.34 1026.84 1026.36 1025.92 1025.44 1025.21 1024.98 1024.00 1023.58 1024.30 1024.21 1021.80 1020.36 1018.82 1019.28 1019.33 1019.85 1018.92 1019.08 1019.43 1018.98 1018.94 1019.45 1019.12 1019.33 1019.37 1019.88 1020.32 1022.68 1023.70 1023.58 1023.48 1022.81 1022.35 1022.31 1022.45 1022.57 1022.36 1022.78 1023.23 1023.77 1024.44 1024.78 1025.07
1029.04 1029.29 1029.49 1029.57 1029.48 1029.33 1029.11 1028.66 1028.16 1027.57 1027.04 1026.57 1026.04 1025.72 1024.92 1024.39 1023.33 1023.72 1024.45 1024.38 1023.20 1022.38 1020.03 1019.02 1018.32 1019.13 1019.48 1019.14 1019.13 1019.17 1019.11 1018.91 1019.78 1019.36 1019.95 1020.06 1020.45 1023.31 1024.38 1024.34 1024.23 1024.03 1023.51 1022.95 1022.46 1022.22 1022.55 1022.66 1022.72 1023.21 1023.52 1023.96 1024.17 1024.49
1029.14 1029.50 1029.67 1029.64 1029.60 1029.40 1029.03 1028.46 1027.92 1027.31 1026.74 1026.31 1025.61 1023.82 1023.48 1024.34 1024.90 1024.24 1024.04 1022.59 1021.65 1021.29 1020.56 1019.83 1019.71 1019.49 1019.57 1018.88 1018.83 1018.82 1018.98 1018.67 1018.63 1020.16 1020.46 1020.90 1023.70 1024.84 1024.90 1024.85 1024.67 1024.36 1024.00 1023.49 1022.86 1022.30 1022.35 1022.65 1022.41 1022.82 1023.18 1023.51 1023.83 1024.23
1029.39 1029.65 1029.78 1029.86 1029.65 1029.30 1028.89 1028.48 1027.76 1027.09 1026.15 1025.33 1024.47 1024.06 1024.06 1024.67 1023.98 1023.15 1022.59 1021.87 1021.37 1020.86 1020.82 1020.90 1020.80 1019.94 1020.57 1019.61 1019.15 1019.53 1018.98 1019.11 1018.64 1020.12 1020.49 1021.38 1024.15 1024.96 1025.09 1024.98 1024.85 1024.71 1024.36 1024.04 1023.83 1023.33 1022.94 1022.67 1022.59 1022.43 1022.65 1023.22 1023.68 1024.24
1029.62 1029.83 1029.93 1029.84 1029.57 1029.30 1029.13 1028.63 1027.74 1025.86 1026.45 1027.15 1026.63 1025.52 1024.25 1023.34 1023.10 1022.68 1022.23 1022.05 1021.32 1021.30 1021.47 1020.96 1021.37 1021.30 1020.89 1021.05 1019.86 1019.88 1019.41 1019.63 1019.34 1020.67 1020.74 1023.38 1025.30 1025.31 1025.42 1025.35 1025.17 1025.00 1024.69 1024.35 1024.05 1023.73 1023.35 1022.85 1022.34 1022.31 1022.45 1022.89 1023.49 1024.07
1029.86 1029.96 1030.00 1029.80 1029.66 1029.50 1029.20 1028.72 1028.39 1028.16 1027.70 1026.04 1025.78 1024.52 1023.90 1023.66 1023.38 1022.31 1021.88 1021.75 1021.76 1021.96 1022.22 1021.81 1021.39 1021.51 1021.10 1021.00 1020.52 1020.39 1020.15 1019.78 1020.89 1020.72 1022.74 1025.19 1025.80 1025.72 1025.98 1025.75 1025.48 1025.19 1024.94 1024.61 1024.26 1023.99 1023.55 1023.11 1022.57 1022.36 1022.54 1022.94 1023.58 1024.25
1030.01 1030.09 1030.01 1029.97 1029.85 1029.49 1029.12 1028.78 1028.41 1027.70 1027.21 1025.14 1024.65 1024.98 1023.87 1023.31 1023.28 1022.78 1022.58 1022.94 1023.57 1023.01 1022.71 1022.27 1021.61 1021.71 1021.63 1021.25 1021.26 1020.88 1021.11 1021.29 1021.13 1021.59 1024.69 1025.76 1026.22 1026.35 1026.34 1026.20 1025.81 1025.51 1025.30 1024.94 1024.94 1024.75 1024.31 1023.55 1022.81 1022.54 1022.84 1023.76 1023.87 1024.22
1030.23 1030.07 1029.89 1029.78 1029.72 1029.57 1029.23 1028.71 1028.21 1026.81 1025.89 1025.22 1024.60 1024.39 1024.07 1024.08 1024.06 1024.04 1023.72 1023.82 1024.03 1023.58 1023.20 1022.44 1022.17 1022.07 1021.83 1021.89 1021.93 1021.96 1021.90 1021.92 1022.48 1024.65 1025.78 1026.44 1026.64 1026.77 1026.69 1026.74 1026.49 1026.38 1026.30 1025.98 1025.84 1025.44 1024.87 1024.51 1023.97 1023.65 1023.42 1024.16 1024.21 1024.37
1030.08 1029.94 1029.73 1029.98 1029.88 1029.62 1029.08 1027.92 1026.98 1026.30 1026.07 1025.49 1024.87 1024.35 1024.25 1024.22 1024.30 1024.27 1024.28 1024.42 1024.74 1024.11 1023.61 1023.27 1022.91 1022.70 1022.66 1022.73 1022.44 1022.53 1022.61 1023.11 1024.91 1025.90 1026.25 1026.47 1026.96 1027.03 1027.11 1026.83 1026.57 1026.41 1026.33 1026.14 1026.07 1025.42 1025.09 1024.84 1024.62 1024.54 1024.37 1024.76 1024.83 1024.71
1030.35 1029.06 1030.23 1030.05 1029.77 1029.34 1028.79 1027.73 1026.75 1026.57 1026.16 1025.73 1025.46 1024.84 1024.26 1024.58 1025.08 1025.48 1025.64 1025.63 1025.46 1024.46 1024.08 1024.05 1023.76 1023.78 1023.79 1023.15 1023.19 1023.60 1024.19 1025.17 1025.41 1025.59 1026.18 1027.01 1027.36 1027.31 1027.26 1026.98 1026.67 1026.36 1026.51 1026.45 1025.96 1025.83 1025.40 1025.50 1025.34 1025.32 1025.29 1025.37 1025.37 1025.27
1029.46 1029.80 1030.17 1030.08 1029.69 1028.68 1028.04 1027.87 1027.31 1026.92 1026.54 1025.99 1025.46 1025.76 1025.65 1025.63 1025.86 1026.16 1026.47 1026.64 1025.94 1025.60 1025.35 1025.11 1025.21 1024.32 1024.06 1023.89 1023.69 1024.85 1025.29 1025.84 1026.26 1026.75 1026.84 1027.35 1027.52 1027.45 1027.29 1027.00 1026.59 1026.27 1026.48 1026.85 1026.54 1026.21 1025.76 1025.57 1025.40 1025.41 1025.62 1025.46 1025.14 1024.94
1029.92 1029.99 1030.39 1030.21 1029.61 1028.82 1028.20 1028.31 1028.17 1027.21 1027.02 1026.87 1026.69 1026.57 1026.28 1026.72 1027.10 1027.15 1026.96 1027.15 1027.12 1027.00 1026.52 1025.73 1025.38 1024.63 1024.47 1025.25 1025.57 1025.56 1026.05 1026.31 1026.43 1026.56 1026.99 1027.29 1027.34 1027.64 1027.48 1027.17 1026.43 1026.07 1026.13 1026.16 1026.44 1026.51 1026.75 1026.34 1025.90 1025.25 1024.79 1024.55 1024.25 1024.04
1030.80 1030.75 1030.56 1030.25 1029.81 1028.66 1028.44 1028.53 1028.59 1027.52 1027.05 1027.36 1027.18 1026.87 1026.67 1026.77 1027.12 1027.14 1027.10 1027.05 1026.94 1026.66 1026.36 1026.04 1025.48 1025.31 1025.74 1026.28 1026.62 1026.59 1026.65 1026.96 1026.86 1026.48 1026.55 1026.50 1027.08 1027.07 1026.99 1026.99 1026.44 1026.36 1025.67 1025.68 1025.84 1026.41 1026.72 1026.26 1025.93 1025.70 1025.00 1023.76 1023.40 1023.35
1030.86 1030.59 1030.47 1029.85 1029.01 1028.66 1028.61 1028.39 1028.19 1028.04 1027.84 1027.30 1027.58 1027.28 1026.98 1027.28 1027.06 1026.91 1026.93 1027.13 1026.77 1026.31 1025.88 1025.95 1026.01 1026.42 1027.44 1027.48 1027.34 1027.36 1027.18 1027.41 1027.21 1027.15 1026.93 1026.99 1027.05 1027.28 1026.89 1026.58 1026.52 1026.52 1026.51 1025.88 1025.57 1025.65 1026.31 1026.83 1026.62 1026.29 1025.68 1025.15 1023.66 1022.76
1030.52 1031.02 1029.91 1029.73 1029.30 1029.24 1028.93 1029.00 1028.32 1028.46 1027.86 1027.70 1027.68 1027.42 1027.13 1027.03 1026.94 1027.06 1027.36 1026.91 1026.46 1026.26 1026.36 1026.17 1026.34 1026.80 1026.98 1027.60 1027.61 1027.89 1027.85 1027.80 1027.45 1027.23 1027.52 1027.51 1027.03 1026.80 1026.73 1026.92 1026.85 1026.42 1026.17 1025.73 1025.56 1025.91 1026.30 1026.52 1026.78 1026.57 1026.52 1026.11 1024.99 1023.53
1031.17 1030.70 1029.95 1029.74 1029.62 1029.84 1029.65 1029.25 1028.56 1028.33 1027.77 1027.76 1027.81 1027.49 1027.40 1027.28 1027.37 1027.84 1027.05 1026.67 1026.46 1026.82 1027.07 1026.97 1027.32 1027.72 1027.65 1027.68 1027.92 1027.70 1027.70 1027.89 1027.25 1027.01 1027.11 1027.03 1026.72 1026.53 1026.50 1026.50 1026.26 1026.23 1026.00 1025.83 1026.10 1025.73 1025.76 1026.28 1026.28 1026.58 1026.41 1026.03 1025.44 1024.60
1031.56 1030.54 1030.11 1029.76 1029.64 1029.66 1029.46 1028.92 1028.78 1028.43 1028.14 1027.91 1027.71 1027.54 1027.52 1027.42 1027.80 1027.36 1026.89 1026.36 1026.75 1027.08 1027.12 1027.58 1027.50 1027.30 1027.58 1027.76 1027.86 1028.32 1027.78 1027.61 1027.18 1026.98 1027.02 1026.88 1026.74 1026.45 1026.31 1026.02 1025.89 1025.79 1025.78 1025.99 1026.09 1025.81 1025.66 1025.76 1026.09 1026.27 1026.20 1025.97 1025.54 1025.13
1031.30 1031.26 1030.73 1030.37 1029.71 1029.39 1028.94 1028.73 1028.57 1028.33 1027.86 1027.88 1027.87 1027.76 1027.78 1028.05 1027.59 1027.20 1026.91 1027.10 1026.91 1027.11 1027.30 1027.41 1027.45 1027.37 1027.43 1027.53 1027.92 1027.53 1027.92 1027.66 1027.40 1027.26 1027.39 1027.52 1027.24 1027.16 1027.05 1026.51 1026.04 1025.91 1026.22 1026.29 1025.97 1025.70 1025.52 1025.43 1025.48 1025.73 1025.80 1025.50 1025.18 1024.73
1031.00 1030.52 1030.29 1029.09 1029.05 1028.63 1028.39 1028.27 1028.22 1028.01 1027.92 1027.93 1027.92 1028.03 1028.05 1028.01 1027.66 1027.13 1027.05 1027.20 1027.34 1027.65 1027.68 1027.58 1027.70 1027.82 1027.84 1028.17 1028.01 1027.76 1027.95 1028.12 1027.97 1027.96 1027.93 1027.67 1027.60 1027.26 1026.75 1026.47 1026.20 1026.04 1026.19 1026.31 1026.56 1026.16 1026.09 1025.66 1025.28 1025.02 1024.95 1024.99 1024.78 1024.45
1030.22 1029.42 1029.23 1029.09 1028.49 1028.41 1028.16 1028.04 1027.90 1027.92 1027.83 1027.73 1027.81 1027.96 1027.92 1027.83 1027.35 1027.17 1027.54 1028.03 1028.23 1028.16 1028.45 1028.48 1028.41 1028.24 1028.09 1028.06 1028.10 1028.28 1028.60 1028.72 1028.54 1028.56 1028.61 1028.19 1027.55 1027.08 1027.05 1027.20 1027.21 1027.46 1027.08 1026.62 1026.50 1026.26 1026.29 1026.10 1025.88 1025.40 1024.70 1024.33 1024.12 1024.11
1029.39 1028.84 1028.47 1028.64 1028.14 1027.99 1027.73 1027.71 1027.71 1027.49 1027.60 1027.89 1027.88 1027.69 1027.70 1027.56 1027.86 1027.78 1028.04 1028.60 1028.70 1028.72 1028.72 1028.67 1028.96 1028.97 1028.80 1028.90 1028.85 1028.63 1028.54 1028.70 1028.96 1029.00 1028.56 1028.23 1027.78 1027.64 1027.93 1027.62 1027.78 1028.79 1027.79 1027.31 1027.71 1027.40 1026.99 1026.68 1026.33 1025.89 1025.00 1024.31 1023.76 1023.50
1028.76 1028.29 1027.97 1027.86 1027.93 1027.96 1027.75 1027.59 1027.48 1027.52 1027.70 1027.78 1027.83 1027.76 1028.04 1027.84 1028.16 1028.25 1028.27 1028.66 1028.84 1028.80 1028.65 1028.38 1028.35 1028.74 1028.62 1028.40 1028.10 1028.19 1028.45 1028.90 1029.18 1029.18 1029.03 1028.78 1028.60 1028.62 1028.89 1029.27 1029.06 1028.67 1028.24 1027.91 1027.94 1028.15 1028.20 1027.69 1027.17 1026.56 1025.50 1024.63 1023.96 1023.46
1028.09 1027.84 1027.47 1027.68 1027.51 1027.26 1027.55 1027.76 1027.65 1028.04 1028.34 1028.35 1028.44 1028.51 1028.46 1028.12 1027.99 1028.44 1028.67 1028.62 1028.45 1028.34 1028.55 1028.61 1028.79 1028.64 1028.47 1028.54 1028.50 1028.59 1028.93 1029.12 1029.69 1030.06 1030.20 1030.33 1030.40 1030.57 1030.55 1030.25 1029.87 1029.42 1028.88 1028.48 1028.21 1027.85 1027.63 1027.23 1026.78 1026.14 1024.89 1024.07 1023.70 1023.15
1027.64 1027.64 1027.51 1027.33 1027.44 1027.62 1027.74 1028.22 1028.40 1028.49 1028.54 1028.52 1028.85 1028.97 1028.79 1028.43 1028.12 1028.02 1028.44 1028.51 1028.52 1028.43 1028.54 1028.39 1028.32 1028.39 1028.58 1028.67 1028.83 1028.99 1029.05 1029.30 1029.86 1030.52 1030.84 1030.89 1030.70 1030.52 1030.33 1030.24 1030.03 1029.67 1029.07 1028.66 1028.34 1027.97 1027.77 1027.47 1026.81 1025.91 1024.74 1023.96 1023.47 1023.23
1027.43 1027.35 1027.27 1027.19 1027.65 1028.08 1028.41 1028.37 1028.37 1028.38 1028.36 1028.45 1028.47 1028.08 1027.93 1027.74 1027.45 1027.33 1027.80 1028.28 1028.14 1028.05 1028.33 1028.65 1028.64 1028.64 1028.89 1029.18 1029.33 1029.56 1030.01 1030.16 1030.38 1030.31 1030.21 1030.35 1030.56 1030.65 1030.58 1030.36 1030.18 1029.97 1029.48 1028.93 1028.46 1027.97 1027.56 1027.23 1026.67 1026.00 1025.05 1024.44 1024.06 1023.50
1027.32 1027.34 1027.37 1027.36 1027.69 1027.82 1027.98 1028.13 1027.91 1027.75 1027.49 1027.50 1027.43 1027.17 1027.02 1026.87 1026.76 1026.72 1027.69 1027.99 1028.11 1028.23 1028.39 1028.52 1028.72 1028.85 1029.22 1029.52 1029.53 1029.69 1030.42 1030.15 1030.49 1031.36 1031.19 1031.50 1031.64 1031.27 1030.80 1029.95 1029.46 1029.53 1029.21 1028.70 1028.19 1027.64 1027.45 1027.10 1026.45 1025.93 1025.20 1024.80 1024.48 1023.79
Wind_Speed
10 9 6 5 7 9 10 11 13 15 16 18 20 20 20 20 21 11 5 6 7 9 11 14 15 12 4 8 7 5 7 4 6 5 4 0 6 5 2 10 2 4 6 6 4 3 6 12 7 9 6 4 6 6
10 9 6 5 6 7 9 11 13 14 16 17 18 18 18 20 22 15 4 5 5 5 10 11 13 11 12 12 7 1 3 4 7 8 2 6 3 2 8 3 9 5 7 6 8 6 6 9 7 5 5 7 7 6
10 9 7 4 4 7 9 11 12 13 14 15 17 17 17 18 20 13 5 7 5 7 9 6 9 11 10 10 9 6 6 6 2 5 8 3 4 7 3 2 12 7 4 4 6 5 8 5 4 5 7 6 6 6
11 9 7 4 4 6 9 11 13 14 15 16 16 16 16 17 20 17 7 8 5 5 3 6 2 8 8 7 7 6 4 1 4 5 5 3 1 3 8 9 12 10 8 10 8 9 6 5 6 5 5 5 5 6
11 9 7 4 2 6 8 10 12 13 14 15 15 15 16 16 16 11 4 7 6 6 4 7 6 7 7 5 5 5 4 6 4 4 1 4 4 5 3 6 10 11 9 5 6 11 9 8 5 4 2 4 5 4
11 9 7 3 2 6 9 11 12 14 15 15 16 17 16 15 12 7 4 5 9 7 5 4 6 5 6 3 4 4 2 3 3 4 5 4 3 5 4 8 10 9 8 6 5 7 8 7 4 2 3 4 4 3
11 9 6 2 3 7 10 11 13 14 14 15 15 14 14 15 7 5 7 6 10 7 5 5 6 5 2 2 2 4 2 2 5 2 4 5 3 5 10 10 11 10 7 4 2 4 3 2 3 3 4 6 2 3
10 8 5 1 4 8 10 11 12 14 14 14 13 12 13 10 5 3 4 5 8 6 5 1 4 4 5 2 5 3 3 3 3 2 1 3 2 5 6 8 10 12 11 1 2 3 5 3 5 5 6 6 4 5
10 8 4 1 5 8 10 12 13 14 14 14 13 12 5 4 2 4 6 8 4 5 3 3 3 6 4 4 2 4 3 4 1 3 3 5 4 7 5 8 10 11 12 12 8 8 3 4 5 5 7 7 7 5
10 7 3 2 6 8 10 12 15 15 14 12 6 6 3 5 4 8 5 4 3 2 3 3 3 5 5 2 3 2 2 2 4 5 3 6 6 6 5 7 8 10 12 14 13 10 5 7 6 8 7 7 7 6
9 6 1 3 6 9 11 14 16 15 7 4 2 4 4 2 5 1 0 1 1 3 3 3 7 3 3 6 3 3 3 1 4 6 2 3 5 6 7 8 9 10 11 11 11 12 11 10 9 9 8 8 7 6
9 5 0 4 7 9 10 12 18 5 5 5 4 4 3 3 2 2 1 3 2 4 2 5 6 4 3 3 4 2 2 2 3 2 3 5 3 6 8 9 11 11 12 13 12 12 13 13 13 11 9 8 8 6
7 4 2 5 7 8 10 11 9 7 10 5 4 1 3 2 3 2 3 3 4 2 3 3 3 4 4 2 2 3 2 1 1 4 6 4 3 7 8 9 11 12 13 13 14 14 14 14 13 10 10 5 7 6
6 4 4 6 8 9 10 11 10 6 6 3 1 4 2 3 3 4 8 7 5 2 3 4 2 4 2 2 3 3 4 4 2 1 5 4 7 8 9 11 13 15 16 16 16 16 16 16 13 10 4 5 6 8
5 2 3 5 10 11 11 12 11 5 4 3 1 0 4 5 6 5 4 6 4 3 5 3 3 3 3 2 2 3 2 3 5 5 4 4 7 8 10 12 12 13 14 12 12 10 11 12 11 11 4 4 5 6
4 4 3 8 10 11 11 11 4 2 1 2 1 5 6 6 6 5 5 6 6 5 3 3 2 2 1 4 2 1 5 6 4 2 1 3 7 7 8 10 12 12 13 12 11 13 11 10 9 9 3 4 3 4
5 2 7 9 11 11 11 5 2 3 2 1 3 3 6 8 6 6 6 6 5 6 4 3 4 5 4 3 0 3 5 3 3 3 6 5 6 6 8 10 11 10 13 16 14 12 8 8 7 5 5 4 4 5
1 5 5 9 9 2 1 4 2 2 2 1 4 4 5 5 4 4 5 6 6 5 4 5 4 3 2 3 4 3 3 4 2 4 4 5 6 8 9 11 12 11 10 13 15 13 13 10 7 4 5 4 5 8
7 6 7 8 7 3 2 3 4 2 3 3 3 2 3 4 3 2 3 4 3 3 5 3 3 3 2 4 5 3 0 2 5 3 3 3 1 5 8 10 12 10 10 8 10 9 7 12 11 6 6 5 6 8
5 5 6 7 6 0 2 3 3 1 2 3 1 2 2 3 3 1 1 2 3 3 2 2 3 4 4 6 3 4 4 2 4 5 3 4 3 7 7 9 9 13 10 9 6 5 7 8 9 9 11 6 7 3
4 5 5 5 2 4 2 1 3 3 2 1 2 2 2 1 2 1 3 3 3 2 2 1 2 6 4 4 4 4 2 4 6 6 7 8 8 7 7 8 9 9 10 10 9 7 5 6 7 8 10 15 11 6
3 5 2 1 1 1 2 2 2 2 3 3 4 2 1 1 0 2 3 3 2 2 3 4 2 2 5 4 0 2 6 6 6 7 4 6 6 6 7 5 5 8 8 9 9 8 10 6 4 5 8 12 13 14
4 4 1 1 2 3 2 2 2 1 3 3 2 2 2 2 3 1 3 1 2 3 3 2 4 2 5 4 4 6 2 5 8 6 5 6 8 7 3 7 5 5 8 9 10 10 7 5 8 7 4 8 11 12
3 2 2 1 2 2 2 3 1 2 2 3 2 2 3 1 2 3 4 2 4 1 3 2 5 4 3 4 5 6 5 7 8 6 6 7 8 9 9 8 7 7 5 6 9 9 9 8 5 9 8 8 7 9
2 3 2 2 2 5 5 6 5 4 4 4 4 3 3 2 2 2 1 1 2 3 3 3 5 3 4 3 5 4 4 6 8 9 9 10 9 8 10 12 10 7 6 6 10 9 10 9 7 8 10 10 11 10
2 3 2 3 4 5 4 5 6 5 4 4 3 2 3 1 3 3 1 3 3 3 4 4 2 4 3 4 6 6 7 8 9 10 10 9 8 10 10 10 9 7 6 5 7 11 13 14 13 13 10 11 9 12
3 4 4 2 0 3 3 2 3 4 5 4 3 5 4 3 3 2 4 3 2 3 3 3 5 6 7 7 7 5 4 6 8 10 11 12 12 11 9 9 12 9 10 12 13 13 10 10 12 15 14 12 10 10
1 4 6 5 4 2 4 5 6 5 3 1 1 5 2 1 2 3 4 2 3 3 5 2 3 5 5 6 8 8 7 7 8 11 11 12 12 8 12 9 9 11 9 10 11 12 13 13 12 14 16 15 13 11
5 3 5 6 5 4 3 2 3 1 2 2 3 1 0 0 3 3 1 2 3 4 5 6 2 3 5 8 5 6 6 7 11 16 17 12 12 12 14 13 13 12 11 12 9 6 13 14 15 14 17 15 14 14
6 4 3 5 5 4 3 2 1 4 1 0 1 1 3 5 2 2 4 4 5 4 4 4 5 6 6 7 8 7 7 5 5 7 9 11 11 10 9 9 10 11 11 12 13 15 14 14 13 14 15 11 7 9
5 3 2 2 2 3 4 3 1 1 2 2 0 3 5 6 6 3 3 4 4 4 5 6 5 5 6 6 7 8 8 7 9 9 7 6 7 7 8 10 10 11 11 12 11 12 12 13 14 17 17 16 14 10
5 4 3 3 4 4 3 3 3 3 3 5 7 8 7 7 7 4 5 5 6 5 1 3 5 5 5 6 6 6 3 8 7 5 7 6 8 9 9 9 8 10 11 12 13 13 12 13 12 14 15 15 17 16
3 3 3 1 2 3 3 3 5 5 6 6 7 6 6 5 5 1 4 4 3 4 4 4 4 4 5 5 6 6 3 5 5 3 6 5 6 8 9 10 10 9 11 12 12 12 11 15 12 15 16 13 14 17
Wind_Direction
154 134 117 77 44 25 13 7 3 1 357 358 358 353 351 351 348 340 78 12 327 87 56 47 39 28 15 347 6 58 233 199 257 285 298 64 6 80 135 183 309 109 316 62 270 280 83 11 2 5 15 29 359 22
144 139 123 89 48 22 9 3 360 357 356 353 353 350 350 349 344 340 34 13 327 23 93 81 67 49 37 30 338 208 22 24 13 299 44 254 173 103 73 47 65 51 29 7 4 53 51 30 49 37 16 29 20 25
150 144 137 109 46 16 4 360 353 351 352 348 349 346 349 350 342 346 -0 2 269 142 146 97 43 48 26 31 23 315 86 351 112 320 325 214 183 58 40 138 86 96 7 53 135 71 34 74 70 47 39 44 42 59
152 149 146 121 44 9 357 352 347 347 348 347 345 343 344 349 340 327 30 357 305 314 146 95 162 48 23 12 30 36 16 22 271 253 271 345 28 30 63 71 51 8 329 30 40 19 78 123 56 68 75 62 62 46
153 154 147 130 30 358 350 343 342 344 343 344 342 340 339 342 332 301 33 35 19 324 36 108 134 38 26 17 35 50 24 303 255 202 297 64 56 328 37 102 45 1 9 20 38 32 358 45 80 101 99 62 53 89
156 155 152 142 7 349 344 340 340 343 339 339 339 338 333 330 330 271 167 72 14 334 277 134 91 29 52 40 56 64 36 292 320 337 62 86 0 291 3 88 40 11 18 360 39 27 52 64 75 72 80 79 91 97
158 153 145 143 357 345 339 337 337 337 332 331 330 328 325 331 318 355 17 -0 331 300 274 161 132 75 17 225 73 101 172 50 343 112 23 63 62 297 32 50 16 9 357 357 63 347 85 206 76 130 111 96 134 86
148 148 150 119 344 341 335 332 333 328 328 324 320 316 311 320 271 171 73 353 324 281 274 289 102 159 340 21 101 285 119 154 14 85 201 59 112 66 60 7 22 8 350 45 313 13 317 50 144 154 145 160 164 173
149 148 147 5 339 337 331 331 329 325 324 315 305 300 275 237 35 47 349 297 264 304 335 310 1 82 242 97 140 137 279 89 259 90 94 256 86 53 19 16 18 14 5 347 309 285 278 246 223 183 193 189 218 160
142 146 155 342 337 337 337 334 325 321 311 303 279 222 120 40 314 278 186 206 196 169 257 59 257 82 297 276 111 210 294 71 174 66 262 97 83 78 34 34 17 10 6 3 1 343 281 263 250 235 227 221 233 175
142 146 148 334 345 350 347 333 325 324 277 234 307 49 56 135 246 287 124 292 220 136 14 58 6 15 31 343 30 -0 356 8 227 109 246 130 87 64 25 18 12 1 355 354 350 342 326 299 282 267 233 227 222 189
139 148 110 355 0 357 347 343 337 319 21 349 309 244 245 252 2 272 108 173 352 53 70 5 39 350 49 297 283 55 310 228 55 99 249 76 66 44 14 -0 357 348 345 342 338 332 324 314 294 267 249 214 218 196
143 137 44 10 359 353 345 345 351 316 275 220 224 77 29 121 24 276 136 152 119 49 31 329 110 329 183 247 282 288 265 59 37 233 73 81 51 29 3 353 345 348 345 336 339 334 325 314 304 266 261 203 190 178
142 124 67 22 356 350 340 331 325 306 262 342 86 13 279 119 68 32 45 57 70 24 28 321 53 353 2 349 327 285 41 265 270 20 74 73 25 8 351 351 346 348 347 347 349 343 334 323 315 289 214 281 176 178
147 138 286 357 354 337 323 314 304 264 314 15 315 68 82 83 88 91 85 84 53 341 342 290 207 291 48 266 341 4 233 236 33 68 76 37 13 351 356 357 350 354 343 341 331 327 330 328 315 317 194 220 220 194
157 215 41 355 334 321 312 293 242 286 340 359 264 127 125 122 116 87 60 64 13 329 258 261 310 345 2 323 268 20 298 41 79 49 28 13 10 355 358 339 350 346 346 349 326 324 327 332 330 330 283 232 237 202
229 44 11 339 317 299 287 290 331 37 16 347 99 358 41 61 66 55 34 17 329 299 22 333 297 27 306 295 286 3 32 69 347 12 24 45 344 351 341 339 340 350 356 349 334 329 338 325 328 320 287 292 269 254
269 91 360 332 317 262 59 350 21 26 76 118 135 88 44 61 95 75 56 19 352 1 319 21 317 255 304 302 34 74 34 14 6 9 9 13 355 346 338 336 333 344 4 350 344 335 325 316 285 269 234 239 230 245
52 30 7 325 330 325 29 70 316 80 56 64 85 80 63 86 76 77 41 57 16 354 293 272 280 281 27 54 333 24 11 7 349 343 38 256 4 1 328 322 321 349 334 332 338 350 333 323 313 283 250 200 208 210
83 36 339 306 298 250 114 75 269 34 141 75 137 155 52 46 60 1 336 351 339 287 217 232 297 42 17 49 5 14 9 326 325 318 310 16 52 333 353 332 344 317 327 349 342 33 341 352 350 348 318 223 243 323
218 26 308 264 37 15 46 4 80 10 138 172 116 245 90 180 249 331 344 28 261 295 272 225 317 81 25 17 23 359 108 1 337 337 346 333 351 330 312 342 342 359 347 328 340 351 6 351 343 343 347 333 312 246
72 288 273 345 62 57 79 12 9 122 250 102 191 222 216 231 288 68 354 240 265 345 352 328 64 59 164 175 188 315 5 311 311 293 218 268 273 306 0 338 321 333 328 321 351 349 339 334 328 338 343 319 309 309
248 238 123 63 76 72 210 249 203 246 187 147 199 179 173 190 69 302 258 323 320 68 329 306 62 305 322 128 254 263 305 311 294 320 324 314 315 315 290 289 326 323 324 345 339 327 340 346 353 328 326 326 327 318
157 18 24 88 136 114 193 174 215 179 183 192 193 198 168 134 89 233 271 41 68 65 207 160 244 242 222 281 9 320 318 341 302 321 332 324 321 325 321 318 313 324 341 346 319 327 331 345 355 340 337 318 321 311
59 2 136 302 214 185 177 166 184 208 185 177 191 182 162 195 243 238 317 78 3 10 7 229 261 271 244 221 256 315 14 319 326 324 340 343 328 327 325 319 320 326 359 330 316 323 325 329 342 343 335 332 327 322
80 170 198 178 165 197 172 166 190 189 171 173 198 145 189 230 261 245 139 45 19 4 341 331 322 281 325 331 309 322 340 337 334 327 317 321 309 297 291 289 304 318 337 329 307 320 323 321 322 324 332 332 322 321
204 163 175 283 166 182 183 161 168 175 190 205 173 189 196 226 229 157 89 50 17 16 344 336 324 324 332 330 330 333 335 311 312 333 325 306 299 312 332 320 308 336 337 320 319 311 304 306 316 317 321 326 327 328
328 211 161 171 186 242 186 173 183 205 135 250 237 214 230 111 260 55 47 40 317 327 308 314 298 309 319 330 319 314 319 335 329 308 312 314 310 344 15 355 3 350 327 322 316 312 312 313 312 309 312 319 318 317
200 209 155 172 159 180 211 196 203 112 59 204 282 74 329 81 6 305 297 250 262 289 281 281 284 231 284 291 299 323 341 345 332 320 318 320 328 331 352 341 331 327 323 317 324 319 312 313 305 301 299 300 309 302
146 207 174 167 216 179 103 291 124 99 203 247 269 275 245 251 299 4 285 267 256 255 284 310 307 288 310 325 319 325 333 338 11 335 324 319 320 326 321 317 321 320 320 321 319 316 316 302 303 292 279 275 284 313
144 208 228 189 114 76 81 108 115 246 234 236 124 277 272 282 293 206 247 266 282 261 247 260 289 321 321 316 325 320 315 342 351 338 316 297 306 302 317 327 324 322 316 313 310 310 307 307 307 303 293 303 303 312
205 209 213 192 124 118 171 216 214 225 235 231 245 239 241 238 247 224 153 220 238 270 291 267 280 295 333 332 322 316 28 330 311 290 291 324 327 324 312 312 308 309 306 305 308 306 306 310 304 307 308 312 311 310
199 182 250 173 191 207 224 232 245 254 257 241 254 260 264 276 286 86 137 231 289 313 315 315 307 311 336 307 309 320 286 310 297 233 240 246 264 282 299 302 320 309 306 302 303 308 305 299 301 302 291 298 298 297